Location: Unspecified
(0.0000°N, 0.0000°E)
Time: 22:10:42
(UTC+00:00)

deb S5M - Pass Details

Date: 21 June 2024
Orbit: 775 x 867 km, 82.5° (Epoch: 13 July)

Event Time Altitude Azimuth Distance (km) Brightness Sun altitude
Exits shadow 03:43:02 29° 132° (SE) 1,450 ? -31.5°
Maximum altitude 03:44:50 37° 93° (E) 1,248 ? -31.1°
Drops below altitude 10° 03:49:52 10° 27° (NNE) 2,435 ? -30.0°
Sets 03:52:26 0° 19° (NNE) 3,382 ? -29.4°
